FW8528 Weather Reports


Display with metric or nautical units.
time (UTC)temp
F
wind
direction
speed
MPH
gust
MPH
rain 1hr
in
rain 24hr
in
rain mn
in
humidity
%
barometer
mb
20260901173440 64 20 3.0 3.0 0.00 0.00 0.00 81 1009.6
20260901172936 64 215 0.0 1.0 0.00 0.00 0.00 83 1009.2
20260901172431 64 205 1.0 1.0 0.00 0.00 0.00 83 1009.6
20260901171929 64 270 0.0 1.0 0.00 0.00 0.00 83 1009.2
20260901171427 63 270 0.0 1.0 0.00 0.00 0.00 84 1009.6
20260901170927 64 241 2.0 2.0 0.00 0.00 0.00 84 1009.2
20260901170422 63 203 0.0 1.0 0.00 0.00 0.00 85 1009.2
20260901165921 63 150 1.0 2.0 0.00 0.00 0.00 87 1009.2
20260901165416 63 219 1.0 2.0 0.00 0.00 0.00 87 1008.9
20260901164912 62 168 1.0 1.0 0.00 0.00 0.00 89 1009.2
20260901164412 61 172 1.0 2.0 0.00 0.00 0.00 89 1009.2
20260901163907 62 253 0.0 0.0 0.00 0.00 0.00 89 1009.2
20260901163402 61 270 0.0 0.0 0.00 0.00 0.00 91 1009.2
20260901162857 60 242 0.0 0.0 0.00 0.00 0.00 92 1009.2
20260901162355 60 268 0.0 0.0 0.00 0.00 0.00 93 1009.2
20260901161850 59 213 0.0 0.0 0.00 0.00 0.00 95 1009.2
20260901161350 59 187 1.0 1.0 0.00 0.00 0.00 95 1009.2
20260901160845 58 206 0.0 1.0 0.00 0.00 0.00 96 1009.6
20260901160341 59 164 2.0 2.0 0.00 0.00 0.00 95 1009.2
20260901155840 59 190 2.0 2.0 0.00 0.00 0.00 96 1009.2
20260901155335 58 261 1.0 1.0 0.00 0.00 0.00 97 1009.6
20260901154832 58 252 0.0 0.0 0.00 0.00 0.00 98 1009.6
20260901154330 57 151 2.0 2.0 0.00 0.00 0.00 99 1009.6
20260901153825 57 202 2.0 2.0 0.00 0.00 0.00 99 1009.6
20260901153320 57 244 0.0 0.0 0.00 0.00 0.00 99 1009.6
20260901152819 57 227 0.0 0.0 0.00 0.00 0.00 99 1009.6
20260901152318 57 227 0.0 0.0 0.00 0.00 0.00 99 1009.6
20260901151814 57 168 1.0 2.0 0.00 0.00 0.00 99 1009.6
20260901151308 57 198 1.0 1.0 0.00 0.00 0.00 99 1009.6
20260901150808 56 225 0.0 0.0 0.00 0.00 0.00 99 1009.6
20260901150306 56 228 0.0 0.0 0.00 0.00 0.00 99 1009.2
20260901145803 56 228 0.0 0.0 0.00 0.00 0.00 99 1009.6
20260901145257 56 210 1.0 1.0 0.00 0.00 0.00 99 1009.6
20260901144753 56 243 0.0 0.0 0.00 0.00 0.00 99 1009.2
20260901144248 56 244 0.0 0.0 0.00 0.00 0.00 99 1009.2
20260901143744 56 244 0.0 0.0 0.00 0.00 0.00 99 1009.6
20260901143240 55 244 0.0 0.0 0.00 0.00 0.00 99 1009.6
20260901142736 55 245 0.0 0.0 0.00 0.00 0.00 99 1009.2
20260901142235 55 246 0.0 0.0 0.00 0.00 0.00 99 1009.2
20260901141731 55 245 0.0 0.0 0.00 0.00 0.00 99 1009.2
20260901141231 55 246 0.0 0.0 0.00 0.00 0.00 99 1009.6
20260901140730 55 236 0.0 0.0 0.00 0.00 0.00 99 1009.6
20260901140228 55 231 1.0 1.0 0.00 0.00 0.00 99 1009.6
20260901135723 55 233 0.0 0.0 0.00 0.00 0.00 99 1009.6
20260901135218 55 233 0.0 0.0 0.00 0.00 0.00 99 1009.2
20260901134714 55 226 0.0 0.0 0.00 0.00 0.00 99 1009.2
20260901134209 55 238 0.0 0.0 0.00 0.00 0.00 99 1009.2
20260901133708 55 238 0.0 0.0 0.00 0.00 0.00 99 1009.2
20260901133207 55 244 0.0 0.0 0.00 0.00 0.00 99 1009.2
20260901132706 54 243 0.0 0.0 0.00 0.00 0.00 99 1009.2
20260901132206 54 218 0.0 0.0 0.00 0.00 0.00 99 1009.6
20260901131701 54 231 0.0 0.0 0.00 0.00 0.00 99 1009.6
20260901131200 54 231 0.0 0.0 0.00 0.00 0.00 99 1009.2
20260901130656 54 233 0.0 0.0 0.00 0.00 0.00 99 1009.2
20260901130154 54 233 0.0 0.0 0.00 0.00 0.00 99 1009.2
20260901125653 54 239 0.0 0.0 0.00 0.00 0.00 99 1008.9
20260901125148 54 242 0.0 0.0 0.00 0.00 0.00 99 1009.6
20260901124643 54 213 1.0 2.0 0.00 0.00 0.00 99 1008.9
20260901124143 54 232 0.0 0.0 0.00 0.00 0.00 99 1009.2
20260901123637 54 220 0.0 1.0 0.00 0.00 0.00 99 1008.9
20260901123137 53 227 0.0 0.0 0.00 0.00 0.00 99 1008.9
20260901122636 53 229 0.0 0.0 0.00 0.00 0.00 99 1008.9
20260901122131 53 229 0.0 0.0 0.00 0.00 0.00 99 1008.6
20260901121626 53 231 0.0 0.0 0.00 0.00 0.00 99 1008.6
20260901121121 53 213 1.0 1.0 0.00 0.00 0.00 99 1008.9
20260901120621 52 224 0.0 0.0 0.00 0.00 0.00 99 1009.2
20260901120115 51 244 0.0 0.0 0.00 0.00 0.00 99 1008.9
20260901115610 51 215 1.0 1.0 0.00 0.00 0.00 99 1008.9
20260901115108 51 227 0.0 0.0 0.00 0.00 0.00 99 1008.9
20260901114604 51 227 0.0 0.0 0.00 0.00 0.00 99 1008.6
20260901114103 51 229 0.0 0.0 0.00 0.00 0.00 99 1008.9
20260901113602 51 229 0.0 0.0 0.00 0.00 0.00 99 1008.9
20260901113057 51 229 0.0 0.0 0.00 0.00 0.00 99 1008.9
20260901112557 51 231 0.0 0.0 0.00 0.00 0.00 99 1008.6
20260901112052 51 231 0.0 0.0 0.00 0.00 0.00 99 1008.6
20260901111550 51 231 0.0 0.0 0.00 0.00 0.00 99 1008.6
20260901111049 51 231 0.0 0.0 0.00 0.00 0.00 99 1008.6
20260901110545 51 231 0.0 0.0 0.00 0.00 0.00 99 1008.9
20260901110040 51 231 0.0 0.0 0.00 0.00 0.00 99 1008.9
20260901105537 51 231 0.0 0.0 0.00 0.00 0.00 99 1008.9
20260901105036 51 231 0.0 0.0 0.00 0.00 0.00 99 1008.9
20260901104533 51 231 0.0 0.0 0.00 0.00 0.00 99 1008.9
20260901104028 51 231 0.0 0.0 0.00 0.00 0.00 99 1008.9
20260901103522 52 231 0.0 0.0 0.00 0.00 0.00 99 1008.6
20260901103018 51 231 0.0 0.0 0.00 0.00 0.00 99 1008.9
20260901102518 52 231 0.0 0.0 0.00 0.00 0.00 99 1008.9
20260901102012 52 231 0.0 0.0 0.00 0.00 0.00 99 1008.9
20260901101509 52 231 0.0 0.0 0.00 0.00 0.00 99 1008.9
20260901101008 52 231 0.0 0.0 0.00 0.00 0.00 99 1008.9
20260901100502 52 231 0.0 0.0 0.00 0.00 0.00 99 1008.9
20260901100001 52 231 0.0 0.0 0.00 0.00 0.00 99 1008.9
20260901095500 52 231 0.0 0.0 0.00 0.00 0.00 99 1008.9
20260901094958 52 231 0.0 0.0 0.00 0.00 0.00 99 1008.9
20260901094453 52 231 0.0 0.0 0.00 0.00 0.00 99 1008.9
20260901093953 52 231 0.0 0.0 0.00 0.00 0.00 99 1008.9
20260901093447 52 231 0.0 0.0 0.00 0.00 0.00 99 1008.6
20260901092947 52 231 0.0 0.0 0.00 0.00 0.00 99 1008.9
20260901092443 52 231 0.0 0.0 0.00 0.00 0.00 99 1008.6
20260901091939 53 231 0.0 0.0 0.00 0.00 0.00 99 1008.9
20260901091434 53 231 0.0 0.0 0.00 0.00 0.00 99 1008.9
20260901090929 53 231 0.0 0.0 0.00 0.00 0.00 99 1008.9
20260901090428 53 231 0.0 0.0 0.00 0.00 0.00 99 1008.9
20260901085924 53 231 0.0 0.0 0.00 0.00 0.00 99 1008.9
20260901085420 53 231 0.0 0.0 0.00 0.00 0.00 99 1008.6
20260901084916 53 231 0.0 0.0 0.00 0.00 0.00 99 1008.9
20260901084412 53 231 0.0 0.0 0.00 0.00 0.00 99 1008.9
20260901083908 53 231 0.0 0.0 0.00 0.00 0.00 99 1008.9
20260901083402 53 231 0.0 0.0 0.00 0.00 0.00 98 1008.9
20260901082900 53 231 0.0 0.0 0.00 0.00 0.00 98 1008.9
20260901082355 53 231 0.0 0.0 0.00 0.00 0.00 98 1008.9
20260901081850 53 231 0.0 0.0 0.00 0.00 0.00 98 1009.2
20260901081346 53 231 0.0 0.0 0.00 0.00 0.00 98 1009.2
20260901080845 53 231 0.0 0.0 0.00 0.00 0.00 98 1008.9
20260901080340 53 231 0.0 0.0 0.00 0.00 0.00 98 1008.9
20260901075834 54 231 0.0 0.0 0.00 0.00 0.00 98 1008.9
20260901075329 53 231 0.0 0.0 0.00 0.00 0.00 98 1008.9
20260901074824 54 231 0.0 0.0 0.00 0.00 0.00 98 1008.9
20260901074319 54 230 0.0 0.0 0.00 0.00 0.00 98 1008.9
20260901073815 54 231 0.0 0.0 0.00 0.00 0.00 98 1008.6
20260901073310 54 231 0.0 0.0 0.00 0.00 0.00 98 1008.6
20260901072806 54 230 0.0 0.0 0.00 0.00 0.00 98 1008.6
20260901072309 54 231 0.0 0.0 0.00 0.00 0.00 98 1008.6
20260901071801 54 231 0.0 0.0 0.00 0.00 0.00 97 1008.6
20260901071259 54 231 0.0 0.0 0.00 0.00 0.00 97 1008.6
20260901070758 54 231 0.0 0.0 0.00 0.00 0.00 96 1008.6
20260901070254 55 231 0.0 0.0 0.00 0.00 0.00 97 1008.6
20260901065753 55 231 0.0 0.0 0.00 0.00 0.00 97 1008.6
20260901065248 55 231 0.0 0.0 0.00 0.00 0.00 97 1008.6
20260901064744 55 231 0.0 0.0 0.00 0.00 0.00 96 1008.6
20260901064241 55 231 0.0 0.0 0.00 0.00 0.00 96 1008.6
20260901063738 55 230 0.0 0.0 0.00 0.00 0.00 96 1008.6
20260901063233 55 231 0.0 0.0 0.00 0.00 0.00 96 1008.6
20260901062730 55 231 0.0 0.0 0.00 0.00 0.00 95 1008.9
20260901062225 55 230 0.0 0.0 0.00 0.00 0.00 95 1008.6
20260901061721 55 230 0.0 0.0 0.00 0.00 0.00 95 1008.9
20260901061220 55 231 0.0 0.0 0.00 0.00 0.00 94 1008.9
20260901060715 55 230 0.0 0.0 0.00 0.00 0.00 95 1008.9
20260901060211 56 230 0.0 0.0 0.00 0.00 0.00 93 1008.9
20260901055706 56 230 0.0 0.0 0.00 0.00 0.00 93 1008.9
20260901055203 56 231 0.0 0.0 0.00 0.00 0.00 93 1008.9
20260901054700 56 231 0.0 0.0 0.00 0.00 0.00 95 1009.2
20260901054155 55 230 0.0 0.0 0.00 0.00 0.00 94 1009.2
20260901053651 56 230 0.0 0.0 0.00 0.00 0.00 94 1009.2
20260901053147 56 230 0.0 0.0 0.00 0.00 0.00 94 1009.2
20260901052642 56 230 0.0 0.0 0.00 0.00 0.00 93 1009.2
20260901052138 56 231 0.0 0.0 0.00 0.00 0.00 93 1009.2
20260901051637 56 230 0.0 0.0 0.00 0.00 0.00 92 1009.2
20260901051136 56 230 0.0 0.0 0.00 0.00 0.00 92 1009.2
20260901050631 56 230 0.0 0.0 0.00 0.00 0.00 92 1009.2
20260901050126 57 231 0.0 0.0 0.00 0.00 0.00 91 1009.2
20260901045621 57 230 0.0 0.0 0.00 0.00 0.00 92 1009.2
20260901045116 57 230 0.0 0.0 0.00 0.00 0.00 91 1009.2
20260901044612 57 230 0.0 0.0 0.00 0.00 0.00 91 1008.9
20260901044108 57 230 0.0 0.0 0.00 0.00 0.00 90 1009.2
20260901043603 58 230 0.0 0.0 0.00 0.00 0.00 89 1008.9
20260901043058 58 231 0.0 0.0 0.00 0.00 0.00 89 1008.9
20260901042557 58 230 0.0 0.0 0.00 0.00 0.00 88 1009.2
20260901042053 58 231 0.0 0.0 0.00 0.00 0.00 87 1008.9
20260901041549 59 230 0.0 0.0 0.00 0.00 0.00 88 1009.2
20260901041048 59 231 0.0 0.0 0.00 0.00 0.00 87 1008.9
20260901040548 59 230 0.0 0.0 0.00 0.00 0.00 87 1008.9
20260901040043 59 230 0.0 0.0 0.00 0.00 0.00 87 1008.9
20260901035541 59 230 0.0 0.0 0.00 0.00 0.00 86 1008.9
20260901035040 60 230 0.0 0.0 0.00 0.00 0.00 86 1008.9
20260901034539 60 231 0.0 0.0 0.00 0.00 0.00 85 1008.6
20260901034034 60 230 0.0 0.0 0.00 0.00 0.00 84 1008.6
20260901033533 60 231 0.0 0.0 0.00 0.00 0.00 83 1008.6
20260901033033 61 231 0.0 0.0 0.00 0.00 0.00 83 1008.6
20260901032532 61 231 0.0 0.0 0.00 0.00 0.00 83 1008.2
20260901032027 62 231 0.0 0.0 0.00 0.00 0.00 82 1008.6
20260901031523 62 231 0.0 0.0 0.00 0.00 0.00 81 1008.6
20260901031018 62 231 0.0 0.0 0.00 0.00 0.00 82 1008.6
20260901030518 63 231 0.0 0.0 0.00 0.00 0.00 82 1007.9
20260901030013 63 231 0.0 0.0 0.00 0.00 0.00 79 1008.2
20260901025507 64 231 0.0 0.0 0.00 0.00 0.00 78 1008.2
20260901025006 64 231 0.0 0.0 0.00 0.00 0.00 75 1007.9
20260901024502 64 230 0.0 0.0 0.00 0.00 0.00 78 1008.2
20260901024000 65 230 0.0 0.0 0.00 0.00 0.00 79 1007.9
20260901023455 65 230 0.0 0.0 0.00 0.00 0.00 76 1007.9
20260901022949 66 230 0.0 0.0 0.00 0.00 0.00 76 1007.9
20260901022445 66 230 0.0 0.0 0.00 0.00 0.00 75 1008.2
20260901021940 67 230 0.0 0.0 0.00 0.00 0.00 76 1008.2
20260901021436 67 230 0.0 0.0 0.00 0.00 0.00 75 1008.2
20260901020931 68 230 0.0 0.0 0.00 0.00 0.00 74 1008.2
20260901020426 68 229 0.0 0.0 0.00 0.00 0.00 73 1008.2
20260901015925 69 229 0.0 1.0 0.00 0.00 0.00 73 1008.2
20260901015422 69 228 0.0 0.0 0.00 0.00 0.00 72 1008.2
20260901014921 70 241 0.0 0.0 0.00 0.00 0.00 68 1008.2
20260901014418 70 226 0.0 0.0 0.00 0.00 0.00 66 1008.2
20260901013913 71 238 0.0 0.0 0.00 0.00 0.00 62 1008.2
20260901013408 72 237 0.0 0.0 0.00 0.00 0.00 59 1008.2
20260901012904 73 235 0.0 0.0 0.00 0.00 0.00 62 1008.2
20260901012358 73 226 0.0 0.0 0.00 0.00 0.00 57 1008.2
20260901011854 74 244 0.0 0.0 0.00 0.00 0.00 62 1008.2
20260901011350 75 199 1.0 1.0 0.00 0.00 0.00 56 1008.2
20260901010848 77 241 0.0 1.0 0.00 0.00 0.00 56 1008.2
20260901010343 77 234 1.0 1.0 0.00 0.00 0.00 48 1008.2
20260901005842 76 239 0.0 0.0 0.00 0.00 0.00 51 1008.2
20260901005337 75 214 3.0 5.0 0.00 0.00 0.00 52 1008.2
20260901004832 76 227 0.0 1.0 0.00 0.00 0.00 50 1008.2
20260901004326 76 254 1.0 1.0 0.00 0.00 0.00 49 1008.6
20260901003826 77 184 2.0 2.0 0.00 0.00 0.00 51 1008.2
20260901003322 78 238 1.0 2.0 0.00 0.00 0.00 49 1008.2
20260901002820 78 211 2.0 2.0 0.00 0.00 0.00 48 1008.2
20260901002315 76 260 1.0 1.0 0.00 0.00 0.00 47 1008.6
20260901001815 76 233 0.0 0.0 0.00 0.00 0.00 49 1008.2
20260901001312 77 227 1.0 2.0 0.00 0.00 0.00 48 1008.2
20260901000805 77 128 1.0 2.0 0.00 0.00 0.00 47 1008.6
20260901000303 77 250 1.0 1.0 0.00 0.00 0.00 47 1008.2
20260831235759 78 251 0.0 0.0 0.00 0.00 0.00 47 1008.6
20260831235255 77 255 1.0 1.0 0.00 0.00 0.00 48 1008.6
20260831234756 78 261 5.0 6.0 0.00 0.00 0.00 47 1008.6
20260831234255 78 268 2.0 2.0 0.00 0.00 0.00 46 1008.6
20260831233751 79 199 4.0 5.0 0.00 0.00 0.00 46 1008.9
20260831233246 79 266 1.0 2.0 0.00 0.00 0.00 46 1008.9
20260831232741 79 230 3.0 5.0 0.00 0.00 0.00 45 1008.6
20260831232237 79 217 5.0 7.0 0.00 0.00 0.00 45 1008.6
20260831231733 79 254 1.0 2.0 0.00 0.00 0.00 45 1008.6
20260831231230 79 231 1.0 1.0 0.00 0.00 0.00 45 1008.6
20260831230729 80 270 2.0 2.0 0.00 0.00 0.00 45 1008.9
20260831230224 80 209 1.0 1.0 0.00 0.00 0.00 45 1009.2
20260831225723 80 229 3.0 5.0 0.00 0.00 0.00 45 1008.9
20260831224844 79 252 1.0 2.0 0.00 0.00 0.00 47 1009.2
20260831224338 79 252 1.0 2.0 0.00 0.00 0.00 47 1009.2
20260831223833 79 205 2.0 2.0 0.00 0.00 0.00 48 1009.6
20260831223329 77 272 1.0 1.0 0.00 0.00 0.00 50 1009.2
20260831222826 77 254 1.0 1.0 0.00 0.00 0.00 50 1009.2
20260831222321 77 235 0.0 0.0 0.00 0.00 0.00 50 1009.6
20260831221821 77 252 2.0 2.0 0.00 0.00 0.00 50 1009.6
20260831221317 78 137 3.0 3.0 0.00 0.00 0.00 48 1009.6
20260831220812 78 139 1.0 1.0 0.00 0.00 0.00 49 1009.6
20260831220307 78 251 2.0 2.0 0.00 0.00 0.00 49 1009.6
20260831215802 77 296 3.0 3.0 0.00 0.00 0.00 51 1009.6
20260831215258 76 105 3.0 6.0 0.00 0.00 0.00 51 1009.6
20260831214754 75 278 1.0 1.0 0.00 0.00 0.00 52 1009.6
20260831214252 76 290 2.0 2.0 0.00 0.00 0.00 51 1009.9
20260831213747 76 108 5.0 7.0 0.00 0.00 0.00 51 1009.9
20260831213244 77 196 1.0 1.0 0.00 0.00 0.00 51 1010.3
20260831212743 76 26 2.0 2.0 0.00 0.00 0.00 51 1010.3
20260831212241 77 120 3.0 3.0 0.00 0.00 0.00 51 1010.3
20260831211739 76 222 1.0 2.0 0.00 0.00 0.00 53 1010.3
20260831211235 77 184 3.0 3.0 0.00 0.00 0.00 52 1010.3
20260831210734 75 175 1.0 2.0 0.00 0.00 0.00 54 1010.3
20260831210225 75 124 4.0 6.0 0.00 0.00 0.00 53 1010.3
20260831205724 76 243 2.0 2.0 0.00 0.00 0.00 52 1010.3
20260831205220 76 91 1.0 2.0 0.00 0.00 0.00 51 1010.6
20260831204715 76 206 3.0 6.0 0.00 0.00 0.00 51 1010.6
20260831204214 77 101 1.0 1.0 0.00 0.00 0.00 51 1010.6
20260831203713 76 224 1.0 1.0 0.00 0.00 0.00 51 1010.6
20260831203208 77 264 2.0 2.0 0.00 0.00 0.00 50 1010.9
20260831202706 75 280 2.0 2.0 0.00 0.00 0.00 52 1010.6
20260831202201 76 195 0.0 1.0 0.00 0.00 0.00 54 1010.9
20260831201655 76 248 3.0 3.0 0.00 0.00 0.00 54 1010.9
20260831201154 75 104 1.0 2.0 0.00 0.00 0.00 53 1011.3
20260831200651 76 221 4.0 5.0 0.00 0.00 0.00 52 1010.9
20260831200151 74 287 1.0 1.0 0.00 0.00 0.00 56 1010.9
20260831195646 75 184 5.0 7.0 0.00 0.00 0.00 54 1010.9
20260831195141 74 254 1.0 2.0 0.00 0.00 0.00 56 1011.3
20260831194636 73 255 2.0 3.0 0.00 0.00 0.00 58 1011.3
20260831194131 72 188 1.0 1.0 0.00 0.00 0.00 59 1011.3
20260831193626 72 73 3.0 5.0 0.00 0.00 0.00 59 1011.3
20260831193121 75 128 3.0 5.0 0.00 0.00 0.00 57 1011.7
20260831192616 75 139 0.0 1.0 0.00 0.00 0.00 54 1011.3
20260831192112 73 184 1.0 1.0 0.00 0.00 0.00 58 1011.7
20260831191608 72 177 2.0 2.0 0.00 0.00 0.00 59 1011.3
20260831191103 72 175 2.0 2.0 0.00 0.00 0.00 60 1012.0
20260831190558 74 109 2.0 3.0 0.00 0.00 0.00 59 1011.7
20260831190056 72 208 0.0 1.0 0.00 0.00 0.00 61 1012.0
20260831185553 72 183 1.0 2.0 0.00 0.00 0.00 62 1012.0
20260831185049 72 180 3.0 3.0 0.00 0.00 0.00 61 1011.7
20260831184548 72 141 1.0 2.0 0.00 0.00 0.00 61 1012.0
20260831184044 72 235 2.0 3.0 0.00 0.00 0.00 60 1012.0
20260831183543 72 1 3.0 3.0 0.00 0.00 0.00 61 1012.0
20260831183042 70 262 1.0 1.0 0.00 0.00 0.00 64 1012.0
20260831182537 71 136 1.0 1.0 0.00 0.00 0.00 62 1012.0
20260831182033 69 162 1.0 2.0 0.00 0.00 0.00 66 1012.0
20260831181532 70 263 3.0 3.0 0.00 0.00 0.00 64 1012.4
20260831181032 69 187 0.0 1.0 0.00 0.00 0.00 68 1012.4
20260831180527 70 254 0.0 0.0 0.00 0.00 0.00 67 1012.4
20260831180022 68 153 2.0 2.0 0.00 0.00 0.00 70 1012.4
20260831175517 67 231 1.0 1.0 0.00 0.00 0.00 71 1012.4
20260831175015 66 123 2.0 3.0 0.00 0.00 0.00 73 1012.7
20260831174514 65 115 2.0 3.0 0.00 0.00 0.00 75 1012.4
20260831174009 65 247 1.0 1.0 0.00 0.00 0.00 75 1012.4